Location: Unspecified
(49.9820°N, 20.4363°E)
Time: 03:55:53
(UTC+02:00)

Vanguard 3 - Pass Details

Date: 21 May 2026
Orbit: 507 x 3204 km, 33.3° (Epoch: 6 June)

Event Time Altitude Azimuth Distance (km) Brightness Sun altitude
Rises 12:46:16 0° 229° (SW) 5,936 11.9 60.2°
Reaches altitude 10° 12:50:07 10° 222° (SW) 5,240 11.8 60.1°
Maximum altitude 13:04:54 40° 161° (SSE) 4,035 12.0 59.7°
Drops below altitude 10° 13:21:52 10° 101° (E) 5,996 11.6 58.8°
Sets 13:26:38 0° 95° (E) 6,839 11.8 58.5°
